Estación de Morza Norte
Ultimos registro cada 15 minutos 48
| N° | Estación | Fecha / Hora | Temperatura | Humedad | Lluvia | Velocidad | Dirección | Radiación | Presion |
| 48 | Morza Norte | 05-05-2026 11:45 | 16,6 | 53 | 0 | 0 | 283 | 253 | 1014,1 |
| 47 | Morza Norte | 05-05-2026 11:30 | 16,5 | 99 | 0 | 0 | 285 | 186 | 1014,4 |
| 46 | Morza Norte | 05-05-2026 11:15 | 16,1 | 55 | 0 | 0 | 318 | 207 | 1014,5 |
| 45 | Morza Norte | 05-05-2026 11:00 | 15,6 | 54 | 0 | 0 | 33 | 165 | 1014,5 |
| 44 | Morza Norte | 05-05-2026 10:45 | 15,1 | 99 | 0 | 0 | 62 | 162 | 1014,4 |
| 43 | Morza Norte | 05-05-2026 10:30 | 14,8 | 56 | 0 | 0 | 48 | 132 | 1014,7 |
| 42 | Morza Norte | 05-05-2026 10:15 | 14,4 | 58 | 0 | 0 | 77 | 137 | 1015,1 |
| 41 | Morza Norte | 05-05-2026 10:00 | 13,4 | 59 | 0 | 0 | 322 | 84 | 1015,5 |
| 40 | Morza Norte | 05-05-2026 09:45 | 13,4 | 59 | 0 | 0 | 322 | 84 | 1015,5 |
| 39 | Morza Norte | 05-05-2026 09:30 | 12,9 | 99 | 0 | 0 | 302 | 98 | 1014,7 |
| 38 | Morza Norte | 05-05-2026 09:15 | 12,4 | 60 | 0 | 0 | 256 | 63 | 1014,2 |
| 37 | Morza Norte | 05-05-2026 09:00 | 11,9 | 63 | 0 | 0 | 137 | 63 | 1013,7 |
| 36 | Morza Norte | 05-05-2026 08:45 | 11,5 | 99 | 0 | 0 | 136 | 58 | 1013,3 |
| 35 | Morza Norte | 05-05-2026 08:30 | 11,1 | 63 | 0 | 0 | 190 | 40 | 1013,9 |
| 34 | Morza Norte | 05-05-2026 08:15 | 10,6 | 64 | 0 | 0 | 291 | 28 | 1013,8 |
| 33 | Morza Norte | 05-05-2026 08:00 | 9,5 | 66 | 0 | 0 | 51 | 12 | 1014,8 |
| 32 | Morza Norte | 05-05-2026 07:45 | 9,5 | 66 | 0 | 0 | 51 | 12 | 1014,8 |
| 31 | Morza Norte | 05-05-2026 07:30 | 9,3 | 66 | 0 | 0 | 145 | 0 | 1015,4 |
| 30 | Morza Norte | 05-05-2026 07:15 | 9,3 | 66 | 0 | 0,9 | 169 | 0 | 1015,9 |
| 29 | Morza Norte | 05-05-2026 07:00 | 9,3 | 66 | 0 | 0 | 102 | 0 | 1015,9 |
| 28 | Morza Norte | 05-05-2026 06:45 | 9,2 | 67 | 0 | 0 | 169 | 0 | 1016,4 |
| 27 | Morza Norte | 05-05-2026 06:30 | 9,1 | 99 | 0 | 0,4 | 282 | 0 | 1016,8 |
| 26 | Morza Norte | 05-05-2026 06:15 | 8,8 | 67 | 0 | 0 | 300 | 0 | 1016,1 |
| 25 | Morza Norte | 05-05-2026 06:00 | 8,6 | 68 | 0 | 0 | 147 | 0 | 1016,5 |
| 24 | Morza Norte | 05-05-2026 05:45 | 8,6 | 68 | 0 | 0 | 146 | 0 | 1016,4 |
| 23 | Morza Norte | 05-05-2026 05:30 | 8,5 | 99 | 0 | 0 | 148 | 0 | 1016,3 |
| 22 | Morza Norte | 05-05-2026 05:15 | 8,4 | 67 | 0 | 0 | 148 | 0 | 1016,7 |
| 21 | Morza Norte | 05-05-2026 05:00 | 8,4 | 67 | 0 | 0 | 148 | 0 | 1016,2 |
| 20 | Morza Norte | 05-05-2026 04:45 | 8,4 | 67 | 0 | 0 | 149 | 0 | 1016,3 |
| 19 | Morza Norte | 05-05-2026 04:30 | 8,3 | 99 | 0 | 0 | 149 | 0 | 1015,7 |
| 18 | Morza Norte | 05-05-2026 04:15 | 8,2 | 68 | 0 | 0 | 149 | 0 | 1015,5 |
| 17 | Morza Norte | 05-05-2026 04:00 | 8,2 | 68 | 0 | 0 | 148 | 0 | 1015,5 |
| 16 | Morza Norte | 05-05-2026 03:45 | 8,2 | 68 | 0 | 0 | 148 | 0 | 1015,3 |
| 15 | Morza Norte | 05-05-2026 03:30 | 8,1 | 68 | 0 | 0 | 148 | 0 | 1015,6 |
| 14 | Morza Norte | 05-05-2026 03:15 | 8,1 | 68 | 0 | 0 | 148 | 0 | 1015,7 |
| 13 | Morza Norte | 05-05-2026 03:00 | 8,1 | 68 | 0 | 0 | 148 | 0 | 1015,7 |
| 12 | Morza Norte | 05-05-2026 02:45 | 8,2 | 68 | 0 | 0 | 148 | 0 | 1015,9 |
| 11 | Morza Norte | 05-05-2026 02:30 | 8,2 | 99 | 0 | 0 | 148 | 0 | 1015,9 |
| 10 | Morza Norte | 05-05-2026 02:15 | 8,2 | 68 | 0 | 0 | 148 | 0 | 1015,9 |
| 9 | Morza Norte | 05-05-2026 02:00 | 7,9 | 68 | 0 | 0 | 148 | 0 | 1016,2 |
| 8 | Morza Norte | 05-05-2026 01:45 | 7,4 | 67 | 0 | 0 | 148 | 0 | 1016,2 |
| 7 | Morza Norte | 05-05-2026 01:30 | 7,3 | 99 | 0 | 0 | 148 | 0 | 1016,5 |
| 6 | Morza Norte | 05-05-2026 01:15 | 6,9 | 66 | 0 | 0 | 148 | 0 | 1016,6 |
| 5 | Morza Norte | 05-05-2026 01:00 | 6,7 | 66 | 0 | 0 | 149 | 0 | 1016,4 |
| 4 | Morza Norte | 05-05-2026 00:45 | 6,8 | 66 | 0 | 0 | 149 | 0 | 1016,5 |
| 3 | Morza Norte | 05-05-2026 00:30 | 7,1 | 66 | 0 | 0 | 149 | 0 | 1016,5 |
| 2 | Morza Norte | 05-05-2026 00:15 | 7,7 | 65 | 0 | 0 | 149 | 0 | 1016,4 |
| 1 | Morza Norte | 05-05-2026 00:00 | 8,4 | 65 | 0 | 0 | 149 | 0 | 1016,5 |